Location: Unspecified
(51.0459°N, 0.0000°E)
Time: 19:10:43
(UTC+00:00)

ISS - Pass Details

Date: 27 May 2019
Orbit: 408 x 418 km, 51.6° (Epoch: 17 June)

Event Time Altitude Azimuth Distance (km) Brightness Sun altitude
Rises 21:18:45 0° 280° (W) 2,356 0.8 -9.7°
Reaches altitude 10° 21:20:50 10° 280° (W) 1,495 -0.2 -9.9°
Maximum altitude 21:24:12 88° 196° (SSW) 423 -3.8 -10.2°
Drops below altitude 10° 21:27:34 10° 103° (ESE) 1,498 -1.4 -10.5°
Enters shadow 21:27:40 - 103° (ESE) 1,543 -1.3 -10.5°
